Regional Weather Roundup
Issued by NWS

Home | Current Version | Previous Version | Text Only | Print | Product List | Glossary Off
Versions: 1 2 3 4 5 6 7 8 9 10 11 12 13 14 15 16 17 18 19 20 21 22 23 24 25 26 27 28 29 30 31 32 33 34 35 36 37 38 39 40 41 42 43 44 45 46 47 48 49 50

822
ASUS43 KOAX 071610
RWRNE

WEATHER ROUNDUP FOR NEBRASKA
NATIONAL WEATHER SERVICE OMAHA NE
1000 AM CST WED DEC 07 2016

NOTES: SATELLITE DATA IS BEING USED TO AUGMENT CLOUD COVER ABOVE
       12000 FEET.
       "FAIR" INDICATES FEW OR NO CLOUDS BELOW 12,000 FEET WITH NO
       SIGNIFICANT WEATHER AND/OR OBSTRUCTIONS TO VISIBILITY.

  * THESE STATIONS DO NOT REPORT WEATHER SUCH AS RAIN...SNOW OR FOG.

NEZ001>004-019>022-054>056-071700-
NEBRASKA PANHANDLE

CITY           SKY/WX    TMP DP  RH WIND       PRES   REMARKS
SCOTTSBLUFF    LGT SNOW   7   0  73 NW12      30.28R WCI  -8
ALLIANCE       LGT SNOW   8   1  73 NW10      30.24R WCI  -6
CHADRON        CLOUDY     7  -3  64 W16G28    30.33R WCI -11
KIMBALL        LGT SNOW   7   3  84 N15       30.19R WCI -11
SIDNEY         LGT SNOW   9   3  77 N16       30.23R WCI  -8
$$

NEZ057>060-069>072-079>082-071700-
SOUTHWEST NEBRASKA

CITY           SKY/WX    TMP DP  RH WIND       PRES   REMARKS
NORTH PLATTE   LGT SNOW  13   5  70 N14       30.32R WCI  -2
IMPERIAL       LGT SNOW  12   7  80 N13       30.29R WCI  -3
LEXINGTON      CLOUDY    16   7  68 N12       30.32R WCI   3
MCCOOK         LGT SNOW  15  10  80 N6        30.32R VSB 3/4 WCI   6
OGALLALA       CLOUDY    15   8  76 N10       30.29R HAZE    WCI   2
$$

NEZ005>010-023>029-035>040-094-071700-
NORTH CENTRAL NEBRASKA

CITY           SKY/WX    TMP DP  RH WIND       PRES   REMARKS
VALENTINE      CLOUDY     7  -5  57 NW21G26   30.31R WCI -13
AINSWORTH      CLOUDY     8  -2  65 NW17G24   30.30R WCI -10
BROKEN BOW     CLOUDY    14   1  56 NW18      30.30R WCI  -3
O`NEILL        CLOUDY    11   1  62 NW17G26   30.30R WCI  -6
ORD            CLOUDY    13  -1  54 NW18      30.31R WCI  -4
THEDFORD       PTSUNNY   12   0  58 N18       30.30R WCI  -6
$$

NEZ041-046>049-061>064-073>077-083>087-071700-
SOUTH CENTRAL NEBRASKA

CITY           SKY/WX    TMP DP  RH WIND       PRES   REMARKS
GRAND ISLAND   CLOUDY    17   4  56 NW14      30.34R WCI   3
AURORA         CLOUDY    17   4  57 NW15      30.32R WCI   3
HASTINGS       CLOUDY    17   4  56 NW10      30.34R WCI   5
HEBRON         CLOUDY    21   8  56 NW13      30.35R WCI   8
HOLDREGE       LGT SNOW  16   8  70 N9        30.31R WCI   4
KEARNEY *      CLOUDY    16   0  48 NW10      30.33R WCI   3
YORK           CLOUDY    18   7  62 NW14      30.33R WCI   4
$$

NEZ011>018-030>034-042>045-071700-
NORTHEAST NEBRASKA

CITY           SKY/WX    TMP DP  RH WIND       PRES   REMARKS
NORFOLK        CLOUDY    14   2  58 NW20      30.29R WCI  -3
ALBION         CLOUDY    15   3  59 NW13G25   30.30R WCI   1
BLAIR          PTSUNNY   17   8  69 W14G20    30.29R WCI   3
FREMONT        CLOUDY    18   8  64 NW15      30.32R WCI   3
TEKAMAH        CLOUDY    17   7  64 NW18      30.32R WCI   1
WAYNE          PTSUNNY   16   7  67 NW17      30.29R WCI   0
$$

NEZ050>053-065>068-078-088>093-071700-
SOUTHEAST NEBRASKA

CITY           SKY/WX    TMP DP  RH WIND       PRES   REMARKS
LINCOLN        CLOUDY    20   7  57 NW12      30.35R WCI   8
OMAHA EPPLEY   CLOUDY    19   7  59 NW14      30.33R WCI   6
BEATRICE       CLOUDY    22  10  60 NW15      30.33R WCI   8
FALLS CITY     CLOUDY    22  11  62 NW10      30.32R WCI  11
NEBRASKA CITY  CLOUDY    21   7  54 NW12      30.32R WCI   9
PLATTSMOUTH    CLOUDY    19   7  57 NW12      30.31R WCI   7
$$

NEZ044-045-051>053-067-071700-
OMAHA AREA

CITY           SKY/WX    TMP DP  RH WIND       PRES   REMARKS
OMAHA EPPLEY   CLOUDY    19   7  59 NW14      30.33R WCI   6
BLAIR          PTSUNNY   17   8  69 W14G20    30.29R WCI   3
FREMONT        CLOUDY    18   8  64 NW15      30.32R WCI   3
MILLARD        CLOUDY    19   8  61 W13       30.33R WCI   6
OFFUTT AFB     CLOUDY    19   8  61 W13       30.32R WCI   6
PLATTSMOUTH    CLOUDY    19   7  57 NW12      30.31R WCI   7
WAHOO          PTSUNNY   18   7  60 NW12      30.33R WCI   6
$$




USA.gov is the U.S. government's official web portal to all federal, state and local government web resources and services.